TimeCST,TemperatureF,Dew PointF,Humidity,Sea Level PressureIn,VisibilityMPH,Wind Direction,Wind SpeedMPH,Gust SpeedMPH,PrecipitationIn,Events,Conditions,WindDirDegrees,DateUTC
12:15 AM,35.6,24.8,65,30.24,10.0,SSW,23.0,28.8,N/A,,Clear,200,2013-01-10 06:15:00
12:35 AM,35.6,24.8,65,30.24,10.0,SSW,21.9,-,N/A,,Clear,200,2013-01-10 06:35:00
12:55 AM,35.6,24.8,65,30.23,10.0,SSW,21.9,27.6,N/A,,Clear,200,2013-01-10 06:55:00
1:15 AM,35.6,24.8,65,30.23,10.0,SSW,21.9,-,N/A,,Clear,200,2013-01-10 07:15:00
1:35 AM,35.6,24.8,65,30.23,10.0,SSW,20.7,-,N/A,,Clear,200,2013-01-10 07:35:00
1:55 AM,35.6,24.8,65,30.23,10.0,SSW,21.9,-,N/A,,Clear,200,2013-01-10 07:55:00
2:15 AM,35.6,24.8,65,30.23,10.0,South,19.6,-,N/A,,Clear,190,2013-01-10 08:15:00
2:35 AM,35.6,24.8,65,30.23,10.0,South,19.6,-,N/A,,Clear,190,2013-01-10 08:35:00
2:55 AM,35.6,24.8,65,30.22,10.0,South,20.7,-,N/A,,Clear,190,2013-01-10 08:55:00
3:15 AM,35.6,24.8,65,30.21,10.0,South,19.6,-,N/A,,Clear,190,2013-01-10 09:15:00
3:35 AM,35.6,24.8,65,30.20,10.0,South,21.9,27.6,N/A,,Clear,190,2013-01-10 09:35:00
3:55 AM,35.6,24.8,65,30.20,10.0,South,18.4,-,N/A,,Clear,190,2013-01-10 09:55:00
4:15 AM,35.6,23.0,60,30.20,10.0,South,19.6,-,N/A,,Clear,180,2013-01-10 10:15:00
4:35 AM,33.8,23.0,65,30.19,10.0,South,18.4,-,N/A,,Clear,190,2013-01-10 10:35:00
4:55 AM,35.6,23.0,60,30.19,10.0,South,18.4,-,N/A,,Clear,190,2013-01-10 10:55:00
5:15 AM,35.6,23.0,60,30.19,10.0,SSW,17.3,-,N/A,,Clear,200,2013-01-10 11:15:00
5:35 AM,35.6,23.0,60,30.18,10.0,SSW,17.3,-,N/A,,Clear,200,2013-01-10 11:35:00
5:55 AM,35.6,23.0,60,30.18,10.0,South,16.1,24.2,N/A,,Clear,190,2013-01-10 11:55:00
6:15 AM,33.8,21.2,60,30.18,10.0,South,13.8,-,N/A,,Clear,180,2013-01-10 12:15:00
6:35 AM,32.0,21.2,64,30.16,10.0,South,15.0,-,N/A,,Clear,170,2013-01-10 12:35:00
6:55 AM,32.0,21.2,64,30.16,10.0,South,15.0,-,N/A,,Clear,170,2013-01-10 12:55:00
7:55 AM,32.0,19.4,60,30.15,10.0,South,21.9,-,N/A,,Clear,190,2013-01-10 13:55:00
8:35 AM,30.2,19.4,64,30.14,10.0,South,12.7,-,N/A,,Clear,180,2013-01-10 14:35:00
9:15 AM,30.2,19.4,64,30.12,10.0,South,12.7,-,N/A,,Clear,170,2013-01-10 15:15:00
9:35 AM,30.2,19.4,64,30.12,10.0,SSE,11.5,-,N/A,,Clear,160,2013-01-10 15:35:00
9:55 AM,32.0,19.4,60,30.10,10.0,SSE,13.8,-,N/A,,Clear,160,2013-01-10 15:55:00
10:15 AM,32.0,19.4,60,30.10,10.0,SSE,15.0,-,N/A,,Clear,160,2013-01-10 16:15:00
10:35 AM,33.8,19.4,56,30.08,10.0,South,15.0,-,N/A,,Clear,170,2013-01-10 16:35:00
10:55 AM,33.8,21.2,60,30.07,10.0,SSE,10.4,-,N/A,,Clear,160,2013-01-10 16:55:00
11:15 AM,33.8,21.2,60,30.06,10.0,SSE,9.2,-,N/A,,Clear,160,2013-01-10 17:15:00
11:35 AM,33.8,19.4,56,30.04,10.0,SSE,11.5,-,N/A,,Clear,160,2013-01-10 17:35:00
11:55 AM,35.6,19.4,52,30.02,10.0,SSE,9.2,-,N/A,,Clear,160,2013-01-10 17:55:00
12:15 PM,35.6,19.4,52,30.00,10.0,SSE,15.0,19.6,N/A,,Clear,160,2013-01-10 18:15:00
12:35 PM,35.6,19.4,52,29.97,10.0,SSE,12.7,-,N/A,,Clear,160,2013-01-10 18:35:00
12:55 PM,37.4,21.2,52,29.95,10.0,SSE,15.0,-,N/A,,Mostly Cloudy,160,2013-01-10 18:55:00
1:15 PM,35.6,21.2,56,29.95,10.0,SSE,15.0,-,N/A,,Overcast,160,2013-01-10 19:15:00
1:35 PM,35.6,23.0,60,29.94,9.0,South,12.7,-,N/A,,Overcast,170,2013-01-10 19:35:00
1:55 PM,37.4,23.0,56,29.93,10.0,SE,11.5,-,N/A,,Overcast,140,2013-01-10 19:55:00
2:15 PM,35.6,23.0,60,29.92,10.0,SE,10.4,-,N/A,,Overcast,140,2013-01-10 20:15:00
2:35 PM,35.6,24.8,65,29.91,10.0,SE,10.4,-,N/A,,Overcast,140,2013-01-10 20:35:00
2:55 PM,35.6,23.0,60,29.91,9.0,SE,12.7,-,N/A,,Overcast,140,2013-01-10 20:55:00
3:15 PM,33.8,24.8,70,29.89,10.0,SSE,15.0,19.6,N/A,,Overcast,150,2013-01-10 21:15:00
3:35 PM,33.8,24.8,70,29.87,10.0,SSE,15.0,-,N/A,,Overcast,150,2013-01-10 21:35:00
3:55 PM,33.8,24.8,70,29.86,10.0,SE,13.8,-,N/A,,Overcast,140,2013-01-10 21:55:00
4:15 PM,33.8,24.8,70,29.85,10.0,SSE,13.8,-,N/A,,Overcast,150,2013-01-10 22:15:00
4:35 PM,33.8,24.8,70,29.84,10.0,SSE,16.1,21.9,N/A,,Overcast,150,2013-01-10 22:35:00
4:55 PM,33.8,26.6,75,29.83,10.0,SE,15.0,21.9,N/A,,Overcast,140,2013-01-10 22:55:00
5:15 PM,33.8,26.6,75,29.81,10.0,SSE,17.3,-,N/A,,Overcast,150,2013-01-10 23:15:00
5:35 PM,33.8,26.6,75,29.78,10.0,SE,16.1,23.0,N/A,,Overcast,140,2013-01-10 23:35:00
5:55 PM,33.8,26.6,75,29.77,5.0,SE,17.3,23.0,N/A,,Overcast,140,2013-01-10 23:55:00
6:15 PM,33.8,26.6,75,29.78,5.0,SSE,15.0,-,N/A,,Overcast,150,2013-01-11 00:15:00
6:35 PM,33.8,26.6,75,29.78,7.0,SSE,13.8,19.6,N/A,,Overcast,160,2013-01-11 00:35:00
6:55 PM,33.8,26.6,75,29.76,3.0,SSE,16.1,23.0,N/A,,Overcast,150,2013-01-11 00:55:00
7:15 PM,33.8,28.4,81,29.75,1.2,SSE,10.4,-,N/A,,Overcast,150,2013-01-11 01:15:00
7:35 PM,33.8,28.4,81,29.74,1.2,SSE,11.5,18.4,N/A,,Overcast,160,2013-01-11 01:35:00
7:55 PM,33.8,28.4,81,29.74,1.0,South,13.8,17.3,N/A,,Overcast,170,2013-01-11 01:55:00
8:15 PM,33.8,28.4,81,29.73,0.8,South,13.8,19.6,N/A,,Overcast,170,2013-01-11 02:15:00
8:55 PM,33.8,28.4,81,29.71,0.5,South,13.8,-,N/A,,Overcast,170,2013-01-11 02:55:00
9:15 PM,33.8,28.4,81,29.70,0.8,South,15.0,20.7,N/A,,Overcast,180,2013-01-11 03:15:00
9:35 PM,33.8,28.4,81,29.69,0.8,South,16.1,-,N/A,,Overcast,180,2013-01-11 03:35:00
9:55 PM,33.8,28.4,81,29.68,0.8,South,15.0,-,N/A,,Overcast,180,2013-01-11 03:55:00
10:15 PM,33.8,28.4,81,29.68,0.8,South,15.0,-,N/A,,Overcast,180,2013-01-11 04:15:00
10:35 PM,33.8,28.4,81,29.66,0.5,South,12.7,-,N/A,,Overcast,180,2013-01-11 04:35:00
10:55 PM,33.8,28.4,81,29.66,1.5,South,15.0,-,N/A,,Overcast,180,2013-01-11 04:55:00
11:15 PM,33.8,28.4,81,29.64,1.2,South,13.8,-,N/A,,Overcast,180,2013-01-11 05:15:00
11:35 PM,33.8,28.4,81,29.64,1.8,South,16.1,-,N/A,,Overcast,180,2013-01-11 05:35:00
11:55 PM,33.8,28.4,81,29.63,1.8,South,16.1,-,N/A,,Overcast,180,2013-01-11 05:55:00